Regional Weather Roundup
Issued by NWS

Home | Current Version | Previous Version | Graphics & Text | Print | Product List | Glossary On
Versions: 1 2 3 4 5 6 7 8 9 10 11 12 13 14 15 16 17 18 19 20 21 22 23 24 25 26 27
000
ASUS45 KSLC 252010
RWRUT

UTAH REGIONAL WEATHER ROUNDUP
NATIONAL WEATHER SERVICE SALT LAKE CITY UT
200 PM MDT MON JUL 25 2016

UTZ001>011-023>025-252100-

NORTHERN UTAH

CITY           SKY/WX    TMP DP  RH WIND       PRES   REMARKS
BRIGHAM CITY     N/A     92  28  10 SW7       30.08F
DUGWAY         MOSUNNY   97  31   9 NW5       30.07  HX  91
HILL AFB       SUNNY     92  41  16 VRB5      30.11F
LOGAN          SUNNY     90  36  14 N7        30.09F
OGDEN          SUNNY     93  39  15 CALM      30.08F
PROVO AIRPORT  MOSUNNY   97  43  15 VRB6      30.07F HX  92
SALT LAKE CITY MOSUNNY   98  40  13 CALM      30.03F HX  93
VERNAL         SUNNY     93  26   9 VRB5      30.14F
WENDOVER       SUNNY     91  32  12 SE12      30.08S
HEBER CITY     SUNNY     95  34  11 SW9       30.14F HX  90

$$

UTZ012>022-026-027-252100-

SOUTHERN/CENTRAL UTAH

CITY           SKY/WX    TMP DP  RH WIND       PRES   REMARKS
BLANDING       MOSUNNY   89  43  20 CALM      30.29F
BRYCE CANYON   PTSUNNY   76  42  29 W22G28    30.38S
CEDAR CITY     SUNNY     94  42  16 SW7G18    30.17F HX  90
DELTA          SUNNY     97  30   9 SW6G16    30.08F HX  91
MILFORD        SUNNY     98  36  11 S15G22    30.10F HX  93
MOAB/CYNLANDS  SUNNY     98  40  13 S9        30.06F HX  93
PRICE          CLOUDY    86  32  14 S15G25    30.21F
ST GEORGE      CLEAR    102  52  18 NW6       29.98F HX 100

$$

REGIONAL REPORTS     COLORADO/ARIZONA

CITY           SKY/WX    TMP DP  RH WIND       PRES   REMARKS
CRAIG, CO      SUNNY     93  24   8 VRB7      30.23F
GRAND JUNCTION SUNNY     94  41  16 VRB7      30.11F HX  90
RIFLE          SUNNY     93  40  15 NW6       30.16F
MONTROSE       CLOUDY    89  42  19 N5        30.20F
CORTEZ         SUNNY     91  47  21 VRB5      30.22F
PAGE, AZ       PTSUNNY   94  45  18 N7        30.08F HX  90
GRAND CANYON   MOSUNNY   89  46  22 SW8G20    30.30F
KINGMAN        PTSUNNY   97  53  22 SW22      30.07F HX  94
FLAGSTAFF      TSTM      65  57  75 VRB5      30.36R

$$

REGIONAL REPORTS    NEVADA/IDAHO/WYOMING

CITY           SKY/WX    TMP DP  RH WIND       PRES   REMARKS
LAS VEGAS, NV  MOSUNNY  108  34   8 SE8G17    29.87F HX 101
ELY            SUNNY     92  22   8 S13G20    30.21F
ELKO           SUNNY     93  13   5 VRB5      30.12F
POCATELLO, ID  SUNNY     91  27  10 VRB5      30.11F
BURLEY         SUNNY     88  40  18 SW5       30.07F
EVANSTON, WY   SUNNY     89  29  11 W18G25    30.29F
ROCK SPRINGS   SUNNY     89  20   8 S10       30.26F
KEMMERER         N/A    N/A N/A N/A E7        30.30F

$$




USA.gov is the U.S. government's official web portal to all federal, state and local government web resources and services.